sat.trackr.live / text

‹ back to catalog

STARLINK-31494

NORAD 59238 · 2024-049H

PAYLOAD ACTIVE UNKNOWN

§ Identity

Operator
Country
US
Launch date
2024-03-16
Launch site
AFETR
Launch vehicle
Mass (kg)
RCS (m²)

Purposes: comms

External: N2YO · Heavens-Above · Gunter

§ Orbital elements

Epoch: 2026-09-20T21:35:34.498176Z

Period
94.27 min
Inclination
42.9995°
Eccentricity
0.0001079
Mean motion
15.27577280 rev/d
Perigee alt
482.3 km
Apogee alt
483.8 km
Semi-major
6,861.2 km
B*
1.3861e-5
RAAN
120.8585°
Arg perigee
266.3942°
Mean anomaly
93.6786°
Rev number
14,226

§ Raw data

STARLINK-314941 59238U 24049H   26263.89970484  .00000119  00000+0  13861-4 0  99972 59238  42.9995 120.8585 0001079 266.3942  93.6786 15.27577280142263

JSON: /api/v1/satellites/59238 · /tle

For live sub-satellite position, see the globe view (requires WebGL).

§ Visibility from observer

Set your observer location to see the next 7 days of passes ≥ 10°. The values pass through the URL so the page stays shareable.

No JS? Fill the form by hand. The geolocation button needs JavaScript.